Content
SEND FEEDBACK

Daily
Averages
Monthly
Summary
United States of America

DEDEDO, GUAM


Home > North America > United States > Guam
Elevation: 364 feet     Latitude: 13 33N     Longitude: 144 49E

WEATHER
 
SELECT A DAY
Number of Records: 215,780;   Date Range: 1/1/95 - 12/26/14
 
SHARE

PRINT THIS DATA

[ ← Previous Day ]
WEATHER ALMANAC - DECEMBER 15, 2013
[ Next Day → ]
[ °C ]   °F
Weather ElementAverageHighLow
Temperature80.5 °F86 °F (1:54 pm)78.1 °F (2:54 am)
Dewpoint75.9 °F78.8 °F (9:04 am)73 °F (7:54 pm)
Humidity86.3 %94 % (1:54 am)67 % (1:54 pm)
Barometer29.85 in29.91 in (9:38 am)29.78 in (2:54 pm)
Wind Speed14 mph23 mph (9:38 am)
Wind Gust33.4 mph (9:38 am)
Weather ElementAverage
Visibility8.2 mi
Wind DirectionENE (74 °)

Weather ElementTotal
Precipitation0.90 in
Cooling Degree Days17.1 (Base 65)
Growing Degree Days32.1 (Base 50)
Averaged from 43 records on December 15, 2013
WEATHER CONDITIONS BREAKOUT
WIND DIRECTION BREAKOUT
WEATHER BY HOUR - DECEMBER 15, 2013
[ °C ]   °F
Local TimeTemperatureDewpointHumidityBarometerVisibilityWind DirectionWind SpeedGust SpeedPrecipitationEventsConditions
1:30 AM78.8 °F75.2 °F89 %29.86 in9.0 miNE (50°)12.7 mph17.3 mph0.02 inRainLight Rain
1:40 AM78.8 °F75.2 °F89 %29.86 in10.0 miENE (70°)9.2 mph0.02 inMostly Cloudy
1:54 AM79.0 °F77.0 °F94 %29.84 in10.0 miENE (60°)8.1 mph0.02 inScattered Clouds
2:54 AM78.1 °F75.9 °F93 %29.82 in9.0 miENE (60°)11.5 mph0.02 inRainLight Rain
3:34 AM78.8 °F77.0 °F94 %29.84 in10.0 miEast (80°)12.7 mph17.3 mph0.01 inMostly Cloudy
3:54 AM79.0 °F77.0 °F94 %29.81 in10.0 miEast (80°)11.5 mph0.01 inOvercast
4:06 AM80.6 °F77.0 °F89 %29.83 in10.0 miEast (80°)11.5 mphOvercast
4:24 AM80.6 °F77.0 °F89 %29.84 in10.0 miENE (70°)10.4 mph19.6 mphMostly Cloudy
4:32 AM80.6 °F77.0 °F89 %29.84 in10.0 miEast (80°)12.7 mphScattered Clouds
4:54 AM80.1 °F77.0 °F90 %29.82 in6.0 miENE (70°)15.0 mph18.4 mph0.00 inRainLight Rain
5:04 AM80.6 °F75.2 °F84 %29.85 in7.0 miEast (90°)15.0 mph23.0 mph0.01 inRainLight Rain
5:20 AM78.8 °F75.2 °F89 %29.85 in7.0 miEast (90°)8.1 mph21.9 mph0.06 inRainLight Rain
5:27 AM78.8 °F75.2 °F89 %29.84 in10.0 miEast (80°)8.1 mph0.06 inMostly Cloudy
5:37 AM78.8 °F77.0 °F94 %29.85 in9.0 miEast (80°)8.1 mph0.06 inMostly Cloudy
5:44 AM78.8 °F75.2 °F89 %29.85 in2.5 miEast (80°)18.4 mph23.0 mph0.09 inRainHeavy Rain
5:50 AM78.8 °F75.2 °F89 %29.85 in3.0 miEast (90°)13.8 mph23.0 mph0.13 inRainRain
5:54 AM78.1 °F75.9 °F93 %29.83 in6.0 miEast (100°)12.7 mph0.13 inRainLight Rain
6:02 AM78.8 °F77.0 °F94 %29.86 in5.0 miEast (90°)12.7 mph0.01 inRainRain
6:54 AM79.0 °F75.9 °F90 %29.85 in10.0 miEast (80°)11.5 mph0.01 inMostly Cloudy
7:54 AM79.0 °F77.0 °F94 %29.87 in3.0 miEast (80°)12.7 mph21.9 mph0.05 inRainRain
8:01 AM78.8 °F77.0 °F94 %29.89 in3.0 miEast (80°)17.3 mph25.3 mph0.01 inRainLight Rain
8:54 AM80.1 °F77.0 °F90 %29.88 in10.0 miEast (80°)13.8 mph25.3 mph0.01 inMostly Cloudy
9:04 AM80.6 °F78.8 °F94 %29.90 in10.0 miEast (90°)16.1 mph25.3 mphMostly Cloudy
9:26 AM80.6 °F77.0 °F89 %29.90 in10.0 miEast (80°)16.1 mph23.0 mphOvercast
9:38 AM78.8 °F75.2 °F89 %29.91 in1.8 miEast (80°)23.0 mph33.4 mph0.03 inRainHeavy Rain
9:45 AM80.6 °F77.0 °F89 %29.90 in3.0 miENE (70°)17.3 mph25.3 mph0.04 inRainLight Rain
9:54 AM81.0 °F78.1 °F91 %29.88 in10.0 miENE (60°)16.1 mph0.04 inOvercast
10:54 AM81.0 °F77.0 °F88 %29.87 in4.0 miEast (90°)17.3 mph24.2 mph0.00 inRainLight Rain
11:07 AM80.6 °F77.0 °F89 %29.89 in4.0 miENE (70°)17.3 mph0.02 inRainLight Rain
11:42 AM84.2 °F78.8 °F84 %29.87 in10.0 miENE (70°)19.6 mph28.8 mph0.02 inScattered Clouds
11:54 AM84.0 °F78.1 °F82 %29.85 in10.0 miENE (70°)19.6 mph25.3 mph0.02 inScattered Clouds
12:54 PM84.0 °F75.0 °F74 %29.82 in10.0 miEast (80°)19.6 mph26.5 mphClear
1:54 PM86.0 °F73.9 °F67 %29.79 in10.0 miENE (70°)21.9 mph27.6 mphScattered Clouds
2:54 PM86.0 °F75.0 °F70 %29.78 in10.0 miENE (70°)18.4 mph26.5 mphPartly Cloudy
3:54 PM84.0 °F73.9 °F72 %29.78 in10.0 miENE (60°)18.4 mph25.3 mphOvercast
4:54 PM82.9 °F75.0 °F77 %29.78 in10.0 miENE (60°)13.8 mph0.00 inOvercast
5:54 PM82.0 °F75.0 °F79 %29.80 in10.0 miENE (60°)10.4 mphScattered Clouds
6:54 PM81.0 °F73.9 °F79 %29.82 in10.0 miENE (60°)11.5 mphScattered Clouds
7:54 PM81.0 °F73.0 °F77 %29.84 in10.0 miENE (60°)13.8 mphPartly Cloudy
8:54 PM80.1 °F73.0 °F79 %29.86 in10.0 miENE (70°)10.4 mphPartly Cloudy
9:54 PM80.1 °F73.0 °F79 %29.86 in10.0 miENE (60°)9.2 mphPartly Cloudy
10:54 PM80.1 °F75.0 °F85 %29.86 in10.0 miENE (70°)11.5 mph0.00 inPartly Cloudy
11:54 PM80.1 °F73.9 °F81 %29.85 in10.0 miENE (60°)11.5 mphPartly Cloudy
Hourly data recorded from PGUM, located miles away from Dededo, Guam







STORIES FROM OUR PARTNERS